Hourly Data Report for June 08, 2017

QUALICUM BEACH AIRPORT
BRITISH COLUMBIA

49°20'14.000" N
124°23'38.000" W
58.20 m
1026562
71766
VOQ

Download Data

Hourly Data (June 2017)
Hourly Data Report for June 8, 2017
TIME
LST
Temp Definition
°C
Dew Point Definition
°C
Rel Hum Definition
%
Precip. Amount Definition
mm

Wind Dir Definition
10's deg

Wind Spd Definition
km/h
Visibility Definition
km
Stn Press Definition
kPa
Hmdx Definition


Wind Chill Definition


Weather Definition


00:00 17.0 7.2 53 0.0 14 9   99.72     LegendNANA
01:00 14.3 10.2 76 0.0 14 4   99.72     LegendNANA
02:00 13.6 11.5 87 0.0 12 2   99.67     LegendNANA
03:00 13.9 11.3 84 0.0 16 4   99.62     LegendNANA
04:00 13.1 12.0 93 0.3 16 2   99.55     LegendNANA
05:00 12.7 12.2 97 1.4 12 1   99.54     LegendNANA
06:00 12.6 12.0 97 0.9 27 3   99.48     LegendNANA
07:00 12.8 12.3 97 0.5 22 2   99.43     LegendNANA
08:00 13.1 12.5 96 1.4   0   99.42     LegendNANA
09:00 13.8 13.4 97 1.6 11 7   99.43     LegendNANA
10:00 13.6 12.8 95 1.0 12 12   99.47     LegendNANA
11:00 13.4 12.9 97 0.7 11 13   99.51     LegendNANA
12:00 13.8 13.0 95 0.1 12 14   99.61     LegendNANA
13:00 14.9 13.8 93 0.0 30 5   99.73     LegendNANA
14:00 15.0 10.2 73 0.0 25 6   99.91     LegendNANA
15:00 15.4 8.4 63 0.0 20 9   100.04     LegendNANA
16:00 15.0 8.1 63 0.0 23 6   100.16     LegendNANA
17:00 14.5 7.3 62 0.0 19 6   100.23     LegendNANA
18:00 14.2 5.9 57 0.0 22 6   100.32     LegendNANA
19:00 13.5 6.4 62 0.0 19 6   100.39     LegendNANA
20:00 11.9 6.9 71 0.0 5 4   100.42     LegendNANA
21:00 9.9 6.9 82 0.0 27 2   100.47     LegendNANA
22:00 8.3 6.9 91 0.0 34 3   100.46     LegendNANA
23:00 7.3 6.0 92 0.0 20 3   100.46     LegendNANA

Notes on Data Quality.

Legend

  • E = Estimated
  • M = Missing
  • NA = Not Available*
  • [empty] = Indicates an unobserved value
Date modified: